Regional Weather Roundup
Issued by NWS

Home | Current Version | Previous Version | Text Only | Print | Product List | Glossary On
Versions: 1 2 3 4 5 6 7 8 9 10 11 12 13 14 15 16 17 18 19 20 21 22 23 24 25 26 27 28 29 30 31 32 33 34 35 36 37 38 39 40 41 42 43 44 45 46 47 48 49 50
966
ASUS43 KLSX 201710
RWRMO

WEATHER SUMMARY FOR MISSOURI
NATIONAL WEATHER SERVICE SPRINGFIELD MO
1200 PM CDT FRI APR 20 2018

NOTE: "FAIR" INDICATES FEW OR NO CLOUDS BELOW 12,000 FEET WITH NO
       SIGNIFICANT WEATHER AND/OR OBSTRUCTIONS TO VISIBILITY.
       CURRENT SKY AND/OR WEATHER CONDITIONS ARE NOT AVAILABLE FOR
       CHILLICOTHE AND FARMINGTON.

MOZ001>031-035>038-043-044-053-054-201800-
...NORTHERN AND WESTERN MISSOURI...

CITY           SKY/WX    TMP DP  RH WIND       PRES   REMARKS
KANSAS CTY INT CLOUDY    57  31  37 SE18      30.40F
KANSAS C DTWN  CLOUDY    56  28  34 SE15G22   30.41S
LEE`S SUMMIT   CLOUDY    56  30  37 SE12G22   30.42F
ST JOSEPH      MOSUNNY   58  31  35 SE12G22   30.41F
CHILLICOTHE      N/A     57  30  35 SE12G21   30.45F
KIRKSVILLE     CLOUDY    57  27  31 SE13G20   30.47F

$$
MOZ066>068-077>081-088>096-101>105-201800-
...SOUTHWEST MISSOURI...

CITY           SKY/WX    TMP DP  RH WIND       PRES   REMARKS
SPRINGFIELD    CLOUDY    57  29  34 SE13      30.38F
JOPLIN         CLOUDY    58  33  39 SE14      30.37F
BRANSON        MOSUNNY   55  32  41 SE14      30.40F

$$
MOZ032>034-039>042-045>050-055>058-069>072-201800-
...CENTRAL MISSOURI...

CITY           SKY/WX    TMP DP  RH WIND       PRES   REMARKS
COLUMBIA       CLOUDY    58  25  28 E13       30.45F
JEFFERSON CITY SUNNY     56  23  27 E9G18     30.45F
ROLLA          SUNNY     55  24  30 E13       30.45F
SEDALIA        MOSUNNY   57  30  35 E15       30.43F
WHITEMAN AFB   PTSUNNY   57  28  33 SE12G18   30.39F
WARRENSBURG    PTSUNNY   57  28  33 E9        30.43S
OSAGE BEACH    SUNNY     57  27  31 E10G18    30.44F

$$
MOZ051-052-059>065-201800-
...EAST CENTRAL MISSOURI...

CITY           SKY/WX    TMP DP  RH WIND       PRES   REMARKS
ST LOUIS INTL  MOSUNNY   57  20  23 SE13      30.49F
SPIRIT OF STL  SUNNY     59  17  19 E13G18    30.48S
ST CHARLES     SUNNY     56  22  26 SE10G22   30.49F

$$
MOZ072>076-082>087-097>100-106>115-201800-
...SOUTH CENTRAL AND SOUTHEAST MISSOURI...

CITY           SKY/WX    TMP DP  RH WIND       PRES   REMARKS
CAPE GIRARDEAU FAIR      59  29  31 SE9       30.44F
FARMINGTON     SUNNY     57  21  24 E12       30.45F
POPLAR BLUFF   FAIR      58  28  32 NE8       30.44F
WEST PLAINS    SUNNY     57  27  31 VRB7      30.43F

$$




USA.gov is the U.S. government's official web portal to all federal, state and local government web resources and services.